Hourly Weather Kurovschina

Today, 2 October, Friday

Time Temperature Precipitation Wind Pressure Humidity
00:00 +12°C° 0 mm 4 mps 752 mmHg 48%
01:00 +11°C° 0 mm 4 mps 752 mmHg 50%
02:00 +11°C° 0 mm 4 mps 752 mmHg 51%
03:00 +10°C° 0 mm 3 mps 752 mmHg 52%
04:00 +10°C° 0 mm 4 mps 752 mmHg 55%
05:00 +10°C° 0 mm 4 mps 752 mmHg 58%
06:00 +10°C° 0 mm 4 mps 752 mmHg 61%
07:00 +11°C° 0 mm 4 mps 752 mmHg 59%
08:00 +13°C° 0 mm 5 mps 753 mmHg 56%
09:00 +14°C° 0 mm 5 mps 753 mmHg 54%
10:00 +15°C° 0 mm 5 mps 753 mmHg 49%
11:00 +17°C° 0 mm 5 mps 753 mmHg 45%
12:00 +19°C° 0 mm 5 mps 752 mmHg 40%
13:00 +20°C° 0 mm 5 mps 752 mmHg 39%
14:00 +20°C° 0 mm 5 mps 752 mmHg 38%
15:00 +20°C° 0 mm 5 mps 752 mmHg 37%
16:00 +19°C° 0 mm 4 mps 752 mmHg 41%
17:00 +18°C° 0 mm 4 mps 752 mmHg 45%
18:00 +16°C° 0 mm 3 mps 752 mmHg 49%
19:00 +16°C° 0 mm 3 mps 752 mmHg 51%
20:00 +14°C° 0 mm 3 mps 753 mmHg 52%
21:00 +13°C° 0 mm 3 mps 753 mmHg 54%
22:00 +13°C° 0 mm 3 mps 753 mmHg 55%
23:00 +12°C° 0 mm 3 mps 753 mmHg 55%

Tomorrow, 3 October, Saturday

Time Temperature Precipitation Wind Pressure Humidity
00:00 +12°C° 0 mm 3 mps 753 mmHg 56%
01:00 +11°C° 0 mm 3 mps 753 mmHg 56%
02:00 +11°C° 0 mm 3 mps 753 mmHg 57%
03:00 +11°C° 0 mm 3 mps 753 mmHg 57%
04:00 +11°C° 0 mm 3 mps 753 mmHg 57%
05:00 +10°C° 0 mm 3 mps 753 mmHg 58%
06:00 +10°C° 0 mm 3 mps 753 mmHg 58%
07:00 +11°C° 0 mm 3 mps 753 mmHg 55%
08:00 +12°C° 0 mm 3 mps 753 mmHg 52%
09:00 +13°C° 0 mm 3 mps 754 mmHg 49%
10:00 +16°C° 0 mm 3 mps 754 mmHg 45%
11:00 +17°C° 0 mm 3 mps 754 mmHg 42%
12:00 +18°C° 0 mm 3 mps 754 mmHg 38%
13:00 +19°C° 0 mm 3 mps 754 mmHg 37%
14:00 +19°C° 0 mm 3 mps 753 mmHg 36%
15:00 +19°C° 0 mm 3 mps 753 mmHg 35%
16:00 +18°C° 0 mm 3 mps 753 mmHg 38%
17:00 +17°C° 0 mm 2 mps 753 mmHg 41%
18:00 +16°C° 0 mm 2 mps 753 mmHg 44%
19:00 +15°C° 0 mm 2 mps 753 mmHg 46%
20:00 +15°C° 0 mm 2 mps 753 mmHg 47%
21:00 +14°C° 0 mm 2 mps 754 mmHg 49%
22:00 +14°C° 0 mm 2 mps 754 mmHg 49%
23:00 +13°C° 0 mm 2 mps 754 mmHg 50%

Day after tomorrow, 4 October, Sunday

Time Temperature Precipitation Wind Pressure Humidity
00:00 +13°C° 0 mm 2 mps 754 mmHg 51%
01:00 +13°C° 0 mm 2 mps 754 mmHg 52%
02:00 +13°C° 0 mm 2 mps 754 mmHg 53%
03:00 +12°C° 0 mm 2 mps 754 mmHg 54%
04:00 +12°C° 0 mm 2 mps 754 mmHg 55%
05:00 +12°C° 0 mm 2 mps 754 mmHg 57%
06:00 +12°C° 0 mm 1 mps 754 mmHg 58%
07:00 +13°C° 0 mm 2 mps 754 mmHg 56%
08:00 +14°C° 0 mm 2 mps 754 mmHg 54%
09:00 +15°C° 0 mm 2 mps 755 mmHg 52%
10:00 +17°C° 0 mm 2 mps 755 mmHg 49%
11:00 +18°C° 0 mm 2 mps 755 mmHg 46%
12:00 +19°C° 0 mm 2 mps 755 mmHg 43%
13:00 +20°C° 0 mm 2 mps 754 mmHg 43%
14:00 +20°C° 0 mm 2 mps 754 mmHg 43%
15:00 +20°C° 0 mm 2 mps 754 mmHg 43%
16:00 +19°C° 0 mm 2 mps 754 mmHg 48%
17:00 +18°C° 0 mm 2 mps 754 mmHg 54%
18:00 +16°C° 0 mm 2 mps 754 mmHg 59%
19:00 +14°C° 0 mm 3 mps 755 mmHg 61%
20:00 +14°C° 0 mm 3 mps 755 mmHg 63%
21:00 +13°C° 0 mm 3 mps 755 mmHg 65%
22:00 +12°C° 0 mm 3 mps 755 mmHg 67%
23:00 +11°C° 0 mm 3 mps 755 mmHg 69%

5 October, Monday

Time Temperature Precipitation Wind Pressure Humidity
00:00 +11°C° 0 mm 3 mps 755 mmHg 71%
01:00 +10°C° 0 mm 2 mps 755 mmHg 73%
02:00 +10°C° 0 mm 2 mps 755 mmHg 74%
03:00 +9°C° 0 mm 2 mps 756 mmHg 76%
04:00 +9°C° 0 mm 2 mps 756 mmHg 77%
05:00 +8°C° 0 mm 2 mps 756 mmHg 79%
06:00 +8°C° 0 mm 2 mps 756 mmHg 81%
07:00 +9°C° 0 mm 2 mps 756 mmHg 76%
08:00 +12°C° 0 mm 2 mps 756 mmHg 71%
09:00 +13°C° 0 mm 2 mps 756 mmHg 66%
10:00 +14°C° 0 mm 2 mps 756 mmHg 61%
11:00 +16°C° 0 mm 2 mps 756 mmHg 56%
12:00 +17°C° 0 mm 2 mps 756 mmHg 52%
13:00 +17°C° 0 mm 2 mps 756 mmHg 49%
14:00 +18°C° 0 mm 2 mps 756 mmHg 47%
15:00 +18°C° 0 mm 2 mps 755 mmHg 44%
16:00 +17°C° 0 mm 2 mps 755 mmHg 48%
17:00 +16°C° 0 mm 2 mps 755 mmHg 52%
18:00 +15°C° 0 mm 2 mps 755 mmHg 56%
19:00 +14°C° 0 mm 2 mps 755 mmHg 58%
20:00 +13°C° 0 mm 2 mps 755 mmHg 60%
21:00 +13°C° 0 mm 2 mps 755 mmHg 62%
22:00 +11°C° 0 mm 3 mps 755 mmHg 63%
23:00 +11°C° 0 mm 3 mps 755 mmHg 64%

6 October, Tuesday

Time Temperature Precipitation Wind Pressure Humidity
00:00 +10°C° 0 mm 3 mps 755 mmHg 64%
01:00 +10°C° 0 mm 3 mps 755 mmHg 63%
02:00 +9°C° 0 mm 3 mps 755 mmHg 63%
03:00 +9°C° 0 mm 3 mps 754 mmHg 62%
04:00 +9°C° 0 mm 3 mps 754 mmHg 62%
05:00 +9°C° 0 mm 3 mps 754 mmHg 62%
06:00 +8°C° 0 mm 3 mps 754 mmHg 62%
07:00 +9°C° 0 mm 3 mps 754 mmHg 59%
08:00 +10°C° 0 mm 3 mps 754 mmHg 56%
09:00 +11°C° 0 mm 3 mps 754 mmHg 54%
10:00 +13°C° 0 mm 3 mps 754 mmHg 50%
11:00 +14°C° 0 mm 4 mps 754 mmHg 47%
12:00 +17°C° 0 mm 4 mps 754 mmHg 44%
13:00 +17°C° 0 mm 4 mps 753 mmHg 43%
14:00 +18°C° 0 mm 4 mps 753 mmHg 41%
15:00 +18°C° 0 mm 4 mps 752 mmHg 40%
16:00 +17°C° 0 mm 3 mps 752 mmHg 43%
17:00 +16°C° 0 mm 3 mps 752 mmHg 46%
18:00 +14°C° 0 mm 3 mps 752 mmHg 49%
19:00 +13°C° 0 mm 3 mps 752 mmHg 48%
20:00 +13°C° 0 mm 3 mps 752 mmHg 48%
21:00 +13°C° 0 mm 4 mps 752 mmHg 47%
22:00 +12°C° 0 mm 3 mps 751 mmHg 48%
23:00 +11°C° 0 mm 3 mps 751 mmHg 50%

7 October, Wednesday

Time Temperature Precipitation Wind Pressure Humidity
00:00 +11°C° 0 mm 3 mps 751 mmHg 51%
01:00 +10°C° 0 mm 3 mps 751 mmHg 51%
02:00 +10°C° 0 mm 3 mps 751 mmHg 52%
03:00 +10°C° 0 mm 3 mps 751 mmHg 52%
04:00 +9°C° 0 mm 3 mps 751 mmHg 52%
05:00 +9°C° 0 mm 3 mps 751 mmHg 53%
06:00 +9°C° 0 mm 3 mps 751 mmHg 53%
07:00 +10°C° 0 mm 3 mps 751 mmHg 50%
08:00 +12°C° 0 mm 3 mps 751 mmHg 47%
09:00 +13°C° 0 mm 3 mps 751 mmHg 45%
10:00 +16°C° 0 mm 3 mps 751 mmHg 41%
11:00 +17°C° 0 mm 3 mps 751 mmHg 37%
12:00 +19°C° 0 mm 3 mps 751 mmHg 34%
13:00 +20°C° 0 mm 3 mps 751 mmHg 33%
14:00 +20°C° 0 mm 3 mps 751 mmHg 32%
15:00 +21°C° 0 mm 2 mps 751 mmHg 32%
16:00 +19°C° 0 mm 2 mps 751 mmHg 35%
17:00 +19°C° 0 mm 1 mps 751 mmHg 39%
18:00 +16°C° 0 mm 1 mps 751 mmHg 42%
19:00 +16°C° 0 mm 1 mps 751 mmHg 43%
20:00 +15°C° 0 mm 1 mps 751 mmHg 44%
21:00 +14°C° 0 mm 1 mps 751 mmHg 46%
22:00 +14°C° 0 mm 1 mps 751 mmHg 47%
23:00 +14°C° 0 mm 1 mps 752 mmHg 47%
Show more